WGS 10 (USA 291)

Last updated on Sun Jun 21 2026 00:03:08 GMT+0000 (Coordinated Universal Time)

1 44071U 19014A 26171.26294977 .00000042 00000+0 00000+0 0 9998 2 44071 0.0187 23.6986 0000413 337.2196 62.5331 1.00272293 26641
UTC large
Height (km)
Speed (km/s)
/
Latitude / Longitude
Inclination (degrees)
Orbital Period (minutes)
Azimuth
Elevation
Range (km)
Doppler Factor

Next 0 passes for location: London (51.5072 / 0.1276)

No passes found over London.
WGS 10 (USA 291)